This is the latest recevied weather packets stored in our database for station/object AE0NK. If no packets are shown the sender has not sent any weather packets the latest 10 day(s).
| Time | Temp. | Humidity | Pressure | Rain* | Wind** | Luminosity | Snow |
|---|---|---|---|---|---|---|---|
| 1777944218 | 18.33° C | 37% | 1001.9 hPa | 0 mm | - | 0 W/m² | - |
| 1777943910 | 18.33° C | 35% | 1001.8 hPa | 0 mm | - | 0 W/m² | - |
| 1777943607 | 18.89° C | 33% | 1001.9 hPa | 0 mm | - | 0 W/m² | - |
| 1777943306 | 18.89° C | 33% | 1001.6 hPa | 0 mm | - | 0 W/m² | - |
| 1777943007 | 18.89° C | 34% | 1001.4 hPa | 0 mm | - | 0 W/m² | - |
| 1777942702 | 19.44° C | 33% | 1001.3 hPa | 0 mm | - | 5 W/m² | - |
| 1777942398 | 19.44° C | 32% | 1001 hPa | 0 mm | - | 7 W/m² | - |
| 1777942117 | 20° C | 31% | 1000.8 hPa | 0 mm | - | 12 W/m² | - |
| 1777941809 | 20° C | 32% | 1000.7 hPa | 0 mm | - | 16 W/m² | - |
| 1777941507 | 20.56° C | 32% | 1000.6 hPa | 0 mm | - | 19 W/m² | - |
| 1777941204 | 21.11° C | 31% | 1000.4 hPa | 0 mm | - | 25 W/m² | - |
| 1777940903 | 21.11° C | 31% | 1000.2 hPa | 0 mm | - | 39 W/m² | - |
| 1777940600 | 21.67° C | 31% | 1000.1 hPa | 0 mm | - | 51 W/m² | - |
| 1777940298 | 21.67° C | 33% | 1000.1 hPa | 0 mm | - | 62 W/m² | - |
| 1777939997 | 22.22° C | 30% | 1000 hPa | 0 mm | - | 76 W/m² | - |
| 1777939694 | 22.22° C | 30% | 999.8 hPa | 0 mm | - | 90 W/m² | - |
| 1777939395 | 22.78° C | 31% | 999.7 hPa | 0 mm | - | 104 W/m² | - |
| 1777939110 | 22.78° C | 30% | 999.5 hPa | 0 mm | - | 102 W/m² | - |
| 1777938807 | 22.78° C | 31% | 999.4 hPa | 0 mm | - | 77 W/m² | - |
| 1777938501 | 23.33° C | 31% | 999.3 hPa | 0 mm | - | 83 W/m² | - |
| 1777938200 | 23.33° C | 32% | 999.2 hPa | 0 mm | - | 125 W/m² | - |
| 1777937897 | 23.89° C | 31% | 999.1 hPa | 0 mm | - | 58 W/m² | - |
| 1777937597 | 23.89° C | 30% | 999 hPa | 0 mm | - | 60 W/m² | - |
| 1777937296 | 24.44° C | 29% | 999 hPa | 0 mm | - | 62 W/m² | - |
| 1777936994 | 24.44° C | 29% | 999 hPa | 0 mm | - | 63 W/m² | - |
* Rain latest hour (hover to see other rain measurements)
** Current wind speed in m/s (hover to see current wind gust speed)